Year,Month,Day,Hour,Minute,Value (Times are PST for windgust in km/hr)
2010,07,11,00,00,9.60
2010,07,11,00,01,16.10
2010,07,11,00,02,11.30
2010,07,11,00,03,9.60
2010,07,11,00,04,9.60
2010,07,11,00,05,16.10
2010,07,11,00,06,9.60
2010,07,11,00,07,11.30
2010,07,11,00,08,17.70
2010,07,11,00,09,17.70
2010,07,11,00,10,9.60
2010,07,11,00,11,11.30
2010,07,11,00,12,19.30
2010,07,11,00,13,19.30
2010,07,11,00,14,12.90
2010,07,11,00,15,17.70
2010,07,11,00,16,12.90
2010,07,11,00,17,17.70
2010,07,11,00,18,17.70
2010,07,11,00,19,16.10
2010,07,11,00,20,17.70
2010,07,11,00,21,11.30
2010,07,11,00,22,20.90
2010,07,11,00,23,12.90
2010,07,11,00,24,12.90
2010,07,11,00,25,12.90
2010,07,11,00,26,16.10
2010,07,11,00,27,11.30
2010,07,11,00,28,11.30
2010,07,11,00,29,9.60
2010,07,11,00,30,8.10
2010,07,11,00,31,3.20
2010,07,11,00,32,8.10
2010,07,11,00,33,3.20
2010,07,11,00,34,9.60
2010,07,11,00,35,4.80
2010,07,11,00,36,6.40
2010,07,11,00,37,9.60
2010,07,11,00,38,8.10
2010,07,11,00,39,6.40
2010,07,11,00,40,8.10
2010,07,11,00,41,9.60
2010,07,11,00,42,6.40
2010,07,11,00,43,6.40
2010,07,11,00,44,9.60
2010,07,11,00,45,8.10
2010,07,11,00,46,11.30
2010,07,11,00,47,11.30
2010,07,11,00,48,6.40
2010,07,11,00,49,12.90
2010,07,11,00,50,12.90
2010,07,11,00,51,11.30
2010,07,11,00,52,9.60
2010,07,11,00,53,9.60
2010,07,11,00,54,8.10
2010,07,11,00,55,6.40
2010,07,11,00,56,8.10
2010,07,11,00,57,8.10
2010,07,11,00,58,6.40
2010,07,11,00,59,8.10
2010,07,11,01,00,6.40
2010,07,11,01,01,11.30
2010,07,11,01,02,9.60
2010,07,11,01,03,12.90
2010,07,11,01,04,11.30
2010,07,11,01,05,4.80
2010,07,11,01,06,9.60
2010,07,11,01,07,6.40
2010,07,11,01,08,8.10
2010,07,11,01,09,12.90
2010,07,11,01,10,9.60
2010,07,11,01,11,8.10
2010,07,11,01,12,3.20
2010,07,11,01,13,12.90
2010,07,11,01,14,16.10
2010,07,11,01,15,9.60
2010,07,11,01,16,8.10
2010,07,11,01,17,9.60
2010,07,11,01,18,11.30
2010,07,11,01,19,4.80
2010,07,11,01,20,3.20
2010,07,11,01,21,8.10
2010,07,11,01,22,16.10
2010,07,11,01,23,8.10
2010,07,11,01,24,4.80
2010,07,11,01,25,11.30
2010,07,11,01,26,6.40
2010,07,11,01,27,8.10
2010,07,11,01,28,4.80
2010,07,11,01,29,4.80
2010,07,11,01,30,11.30
2010,07,11,01,31,4.80
2010,07,11,01,32,9.60
2010,07,11,01,33,4.80
2010,07,11,01,34,6.40
2010,07,11,01,35,9.60
2010,07,11,01,36,6.40
2010,07,11,01,37,4.80
2010,07,11,01,38,6.40
2010,07,11,01,39,6.40
2010,07,11,01,40,6.40
2010,07,11,01,41,4.80
2010,07,11,01,42,8.10
2010,07,11,01,43,6.40
2010,07,11,01,44,9.60
2010,07,11,01,45,8.10
2010,07,11,01,46,4.80
2010,07,11,01,47,6.40
2010,07,11,01,48,8.10
2010,07,11,01,49,8.10
2010,07,11,01,50,4.80
2010,07,11,01,51,8.10
2010,07,11,01,52,9.60
2010,07,11,01,53,8.10
2010,07,11,01,54,9.60
2010,07,11,01,55,11.30
2010,07,11,01,56,9.60
2010,07,11,01,57,8.10
2010,07,11,01,58,6.40
2010,07,11,01,59,6.40
2010,07,11,02,00,4.80
2010,07,11,02,01,6.40
2010,07,11,02,02,4.80
2010,07,11,02,03,6.40
2010,07,11,02,04,6.40
2010,07,11,02,05,6.40
2010,07,11,02,06,6.40
2010,07,11,02,07,8.10
2010,07,11,02,08,3.20
2010,07,11,02,09,6.40
2010,07,11,02,10,4.80
2010,07,11,02,11,9.60
2010,07,11,02,12,6.40
2010,07,11,02,13,9.60
2010,07,11,02,14,4.80
2010,07,11,02,15,8.10
2010,07,11,02,16,3.20
2010,07,11,02,17,3.20
2010,07,11,02,18,4.80
2010,07,11,02,19,3.20
2010,07,11,02,20,4.80
2010,07,11,02,21,6.40
2010,07,11,02,22,4.80
2010,07,11,02,23,4.80
2010,07,11,02,24,4.80
2010,07,11,02,25,3.20
2010,07,11,02,26,1.60
2010,07,11,02,27,3.20
2010,07,11,02,28,3.20
2010,07,11,02,29,1.60
2010,07,11,02,30,1.60
2010,07,11,02,31,1.60
2010,07,11,02,32,1.60
2010,07,11,02,33,1.60
2010,07,11,02,34,3.20
2010,07,11,02,35,6.40
2010,07,11,02,36,1.60
2010,07,11,02,37,3.20
2010,07,11,02,38,3.20
2010,07,11,02,39,1.60
2010,07,11,02,40,6.40
2010,07,11,02,41,3.20
2010,07,11,02,42,3.20
2010,07,11,02,43,1.60
2010,07,11,02,44,3.20
2010,07,11,02,45,3.20
2010,07,11,02,46,3.20
2010,07,11,02,47,3.20
2010,07,11,02,49,1.60
2010,07,11,02,52,4.80
2010,07,11,02,53,3.20
2010,07,11,02,54,4.80
2010,07,11,02,55,3.20
2010,07,11,02,56,3.20
2010,07,11,02,57,3.20
2010,07,11,02,58,4.80
2010,07,11,02,59,3.20
2010,07,11,03,00,3.20
2010,07,11,03,01,3.20
2010,07,11,03,02,4.80
2010,07,11,03,03,6.40
2010,07,11,03,04,4.80
2010,07,11,03,05,4.80
2010,07,11,03,06,3.20
2010,07,11,03,07,4.80
2010,07,11,03,08,6.40
2010,07,11,03,09,8.10
2010,07,11,03,10,4.80
2010,07,11,03,11,6.40
2010,07,11,03,12,3.20
2010,07,11,03,13,3.20
2010,07,11,03,14,4.80
2010,07,11,03,15,4.80
2010,07,11,03,16,3.20
2010,07,11,03,17,1.60
2010,07,11,03,18,3.20
2010,07,11,03,19,1.60
2010,07,11,03,20,1.60
2010,07,11,03,21,4.80
2010,07,11,03,22,3.20
2010,07,11,03,23,3.20
2010,07,11,03,24,1.60
2010,07,11,03,26,1.60
2010,07,11,03,27,1.60
2010,07,11,03,30,1.60
2010,07,11,03,31,1.60
2010,07,11,03,32,1.60
2010,07,11,03,33,3.20
2010,07,11,03,34,1.60
2010,07,11,03,42,1.60
2010,07,11,03,44,1.60
2010,07,11,03,46,1.60
2010,07,11,03,48,1.60
2010,07,11,03,49,1.60
2010,07,11,03,52,1.60
2010,07,11,03,54,3.20
2010,07,11,03,55,1.60
2010,07,11,03,56,1.60
2010,07,11,03,57,1.60
2010,07,11,03,58,3.20
2010,07,11,03,59,1.60
2010,07,11,04,02,1.60
2010,07,11,04,03,1.60
2010,07,11,04,08,1.60
2010,07,11,04,09,1.60
2010,07,11,04,10,3.20
2010,07,11,04,11,1.60
2010,07,11,04,13,1.60
2010,07,11,04,16,3.20
2010,07,11,04,17,3.20
2010,07,11,04,18,1.60
2010,07,11,04,19,1.60
2010,07,11,04,20,1.60
2010,07,11,04,21,1.60
2010,07,11,04,22,3.20
2010,07,11,04,23,3.20
2010,07,11,04,24,3.20
2010,07,11,04,25,1.60
2010,07,11,04,26,3.20
2010,07,11,04,27,3.20
2010,07,11,04,28,1.60
2010,07,11,04,29,1.60
2010,07,11,04,30,4.80
2010,07,11,04,31,3.20
2010,07,11,04,32,4.80
2010,07,11,04,33,1.60
2010,07,11,04,35,3.20
2010,07,11,04,37,1.60
2010,07,11,04,40,1.60
2010,07,11,04,45,1.60
2010,07,11,04,48,1.60
2010,07,11,04,49,1.60
2010,07,11,04,50,1.60
2010,07,11,04,51,1.60
2010,07,11,04,52,1.60
2010,07,11,04,54,4.80
2010,07,11,04,55,1.60
2010,07,11,04,56,1.60
2010,07,11,04,57,1.60
2010,07,11,04,58,3.20
2010,07,11,04,59,1.60
2010,07,11,05,00,1.60
2010,07,11,05,01,1.60
2010,07,11,05,02,1.60
2010,07,11,05,03,1.60
2010,07,11,05,04,1.60
2010,07,11,05,05,1.60
2010,07,11,05,06,4.80
2010,07,11,05,07,4.80
2010,07,11,05,08,1.60
2010,07,11,05,09,1.60
2010,07,11,05,10,1.60
2010,07,11,05,11,1.60
2010,07,11,05,13,1.60
2010,07,11,05,14,1.60
2010,07,11,05,15,1.60
2010,07,11,05,17,1.60
2010,07,11,05,23,1.60
2010,07,11,05,26,1.60
2010,07,11,05,27,1.60
2010,07,11,05,28,1.60
2010,07,11,05,30,1.60
2010,07,11,05,31,1.60
2010,07,11,05,34,3.20
2010,07,11,05,37,1.60
2010,07,11,05,46,1.60
2010,07,11,05,47,3.20
2010,07,11,05,51,1.60
2010,07,11,05,52,1.60
2010,07,11,05,53,1.60
2010,07,11,05,56,1.60
2010,07,11,05,59,1.60
2010,07,11,06,00,1.60
2010,07,11,06,02,1.60
2010,07,11,06,04,3.20
2010,07,11,06,05,1.60
2010,07,11,06,08,1.60
2010,07,11,06,10,1.60
2010,07,11,06,11,1.60
2010,07,11,06,12,1.60
2010,07,11,06,13,1.60
2010,07,11,06,16,1.60
2010,07,11,06,17,1.60
2010,07,11,06,18,3.20
2010,07,11,06,19,3.20
2010,07,11,06,20,4.80
2010,07,11,06,21,3.20
2010,07,11,06,22,3.20
2010,07,11,06,23,4.80
2010,07,11,06,24,4.80
2010,07,11,06,25,3.20
2010,07,11,06,26,1.60
2010,07,11,06,27,1.60
2010,07,11,06,28,1.60
2010,07,11,06,30,1.60
2010,07,11,06,31,1.60
2010,07,11,06,32,1.60
2010,07,11,06,33,1.60
2010,07,11,06,34,3.20
2010,07,11,06,35,1.60
2010,07,11,06,37,3.20
2010,07,11,06,38,3.20
2010,07,11,06,39,1.60
2010,07,11,06,42,1.60
2010,07,11,06,43,1.60
2010,07,11,06,44,1.60
2010,07,11,06,45,1.60
2010,07,11,06,46,3.20
2010,07,11,06,47,1.60
2010,07,11,06,48,1.60
2010,07,11,06,49,3.20
2010,07,11,06,50,1.60
2010,07,11,06,51,3.20
2010,07,11,06,52,3.20
2010,07,11,06,53,1.60
2010,07,11,06,54,3.20
2010,07,11,06,55,4.80
2010,07,11,06,56,3.20
2010,07,11,06,57,3.20
2010,07,11,06,58,4.80
2010,07,11,06,59,4.80
2010,07,11,07,00,6.40
2010,07,11,07,01,1.60
2010,07,11,07,02,3.20
2010,07,11,07,03,3.20
2010,07,11,07,04,6.40
2010,07,11,07,05,4.80
2010,07,11,07,06,6.40
2010,07,11,07,07,8.10
2010,07,11,07,08,8.10
2010,07,11,07,09,6.40
2010,07,11,07,10,4.80
2010,07,11,07,11,4.80
2010,07,11,07,12,4.80
2010,07,11,07,13,3.20
2010,07,11,07,14,6.40
2010,07,11,07,15,6.40
2010,07,11,07,16,1.60
2010,07,11,07,17,3.20
2010,07,11,07,18,1.60
2010,07,11,07,19,1.60
2010,07,11,07,20,1.60
2010,07,11,07,21,4.80
2010,07,11,07,22,8.10
2010,07,11,07,23,3.20
2010,07,11,07,24,6.40
2010,07,11,07,25,1.60
2010,07,11,07,26,3.20
2010,07,11,07,27,3.20
2010,07,11,07,28,3.20
2010,07,11,07,29,1.60
2010,07,11,07,30,8.10
2010,07,11,07,31,8.10
2010,07,11,07,32,6.40
2010,07,11,07,33,4.80
2010,07,11,07,34,4.80
2010,07,11,07,35,1.60
2010,07,11,07,36,4.80
2010,07,11,07,37,4.80
2010,07,11,07,38,3.20
2010,07,11,07,39,3.20
2010,07,11,07,40,3.20
2010,07,11,07,41,6.40
2010,07,11,07,42,6.40
2010,07,11,07,43,4.80
2010,07,11,07,44,6.40
2010,07,11,07,45,6.40
2010,07,11,07,46,4.80
2010,07,11,07,47,3.20
2010,07,11,07,48,3.20
2010,07,11,07,49,6.40
2010,07,11,07,50,8.10
2010,07,11,07,51,6.40
2010,07,11,07,52,4.80
2010,07,11,07,53,6.40
2010,07,11,07,54,4.80
2010,07,11,07,55,4.80
2010,07,11,07,56,4.80
2010,07,11,07,57,11.30
2010,07,11,07,58,9.60
2010,07,11,07,59,6.40
2010,07,11,08,00,8.10
2010,07,11,08,01,6.40
2010,07,11,08,02,6.40
2010,07,11,08,03,6.40
2010,07,11,08,04,6.40
2010,07,11,08,05,4.80
2010,07,11,08,06,4.80
2010,07,11,08,07,4.80
2010,07,11,08,08,3.20
2010,07,11,08,09,1.60
2010,07,11,08,10,1.60
2010,07,11,08,13,3.20
2010,07,11,08,14,6.40
2010,07,11,08,15,3.20
2010,07,11,08,16,8.10
2010,07,11,08,17,6.40
2010,07,11,08,18,6.40
2010,07,11,08,19,6.40
2010,07,11,08,20,6.40
2010,07,11,08,21,4.80
2010,07,11,08,22,6.40
2010,07,11,08,23,4.80
2010,07,11,08,24,3.20
2010,07,11,08,25,6.40
2010,07,11,08,26,6.40
2010,07,11,08,27,4.80
2010,07,11,08,28,4.80
2010,07,11,08,29,4.80
2010,07,11,08,30,3.20
2010,07,11,08,31,4.80
2010,07,11,08,32,1.60
2010,07,11,08,33,4.80
2010,07,11,08,34,4.80
2010,07,11,08,35,3.20
2010,07,11,08,36,6.40
2010,07,11,08,37,3.20
2010,07,11,08,38,3.20
2010,07,11,08,39,6.40
2010,07,11,08,40,3.20
2010,07,11,08,41,6.40
2010,07,11,08,42,6.40
2010,07,11,08,43,3.20
2010,07,11,08,44,3.20
2010,07,11,08,45,3.20
2010,07,11,08,46,6.40
2010,07,11,08,47,3.20
2010,07,11,08,48,6.40
2010,07,11,08,49,3.20
2010,07,11,08,50,6.40
2010,07,11,08,51,6.40
2010,07,11,08,52,3.20
2010,07,11,08,53,4.80
2010,07,11,08,54,3.20
2010,07,11,08,55,3.20
2010,07,11,08,56,1.60
2010,07,11,08,57,6.40
2010,07,11,08,58,3.20
2010,07,11,08,59,6.40
2010,07,11,09,00,3.20
2010,07,11,09,01,6.40
2010,07,11,09,02,8.10
2010,07,11,09,03,8.10
2010,07,11,09,04,8.10
2010,07,11,09,05,3.20
2010,07,11,09,06,3.20
2010,07,11,09,07,6.40
2010,07,11,09,08,6.40
2010,07,11,09,09,6.40
2010,07,11,09,10,6.40
2010,07,11,09,11,1.60
2010,07,11,09,12,3.20
2010,07,11,09,13,1.60
2010,07,11,09,14,8.10
2010,07,11,09,15,6.40
2010,07,11,09,16,1.60
2010,07,11,09,17,4.80
2010,07,11,09,18,3.20
2010,07,11,09,19,6.40
2010,07,11,09,20,6.40
2010,07,11,09,21,6.40
2010,07,11,09,22,1.60
2010,07,11,09,23,1.60
2010,07,11,09,24,3.20
2010,07,11,09,25,6.40
2010,07,11,09,26,3.20
2010,07,11,09,27,3.20
2010,07,11,09,28,4.80
2010,07,11,09,29,8.10
2010,07,11,09,30,6.40
2010,07,11,09,31,6.40
2010,07,11,09,32,6.40
2010,07,11,09,33,6.40
2010,07,11,09,34,6.40
2010,07,11,09,35,6.40
2010,07,11,09,36,3.20
2010,07,11,09,37,4.80
2010,07,11,09,38,6.40
2010,07,11,09,39,3.20
2010,07,11,09,40,6.40
2010,07,11,09,41,3.20
2010,07,11,09,42,1.60
2010,07,11,09,43,6.40
2010,07,11,09,44,8.10
2010,07,11,09,45,3.20
2010,07,11,09,46,8.10
2010,07,11,09,47,3.20
2010,07,11,09,48,6.40
2010,07,11,09,49,8.10
2010,07,11,09,50,9.60
2010,07,11,09,51,6.40
2010,07,11,09,52,8.10
2010,07,11,09,53,8.10
2010,07,11,09,54,3.20
2010,07,11,09,55,6.40
2010,07,11,09,56,8.10
2010,07,11,09,57,6.40
2010,07,11,09,58,8.10
2010,07,11,09,59,8.10
2010,07,11,10,00,8.10
2010,07,11,10,01,11.30
2010,07,11,10,02,11.30
2010,07,11,10,03,9.60
2010,07,11,10,04,6.40
2010,07,11,10,05,8.10
2010,07,11,10,06,6.40
2010,07,11,10,07,6.40
2010,07,11,10,08,3.20
2010,07,11,10,09,6.40
2010,07,11,10,10,6.40
2010,07,11,10,11,9.60
2010,07,11,10,12,6.40
2010,07,11,10,13,8.10
2010,07,11,10,14,6.40
2010,07,11,10,15,9.60
2010,07,11,10,16,8.10
2010,07,11,10,17,11.30
2010,07,11,10,18,8.10
2010,07,11,10,19,9.60
2010,07,11,10,20,6.40
2010,07,11,10,21,9.60
2010,07,11,10,22,11.30
2010,07,11,10,23,12.90
2010,07,11,10,24,9.60
2010,07,11,10,25,9.60
2010,07,11,10,26,11.30
2010,07,11,10,27,16.10
2010,07,11,10,28,11.30
2010,07,11,10,29,12.90
2010,07,11,10,30,9.60
2010,07,11,10,31,6.40
2010,07,11,10,32,9.60
2010,07,11,10,33,9.60
2010,07,11,10,34,6.40
2010,07,11,10,35,9.60
2010,07,11,10,36,8.10
2010,07,11,10,37,6.40
2010,07,11,10,38,9.60
2010,07,11,10,39,9.60
2010,07,11,10,40,6.40
2010,07,11,10,41,9.60
2010,07,11,10,42,14.50
2010,07,11,10,43,9.60
2010,07,11,10,44,12.90
2010,07,11,10,45,12.90
2010,07,11,10,46,8.10
2010,07,11,10,47,4.80
2010,07,11,10,48,8.10
2010,07,11,10,49,9.60
2010,07,11,10,50,9.60
2010,07,11,10,51,9.60
2010,07,11,10,52,9.60
2010,07,11,10,53,4.80
2010,07,11,10,54,6.40
2010,07,11,10,55,11.30
2010,07,11,10,56,11.30
2010,07,11,10,57,12.90
2010,07,11,10,58,12.90
2010,07,11,10,59,12.90
2010,07,11,11,00,11.30
2010,07,11,11,01,12.90
2010,07,11,11,02,11.30
2010,07,11,11,03,4.80
2010,07,11,11,04,12.90
2010,07,11,11,05,12.90
2010,07,11,11,06,12.90
2010,07,11,11,07,11.30
2010,07,11,11,08,6.40
2010,07,11,11,09,6.40
2010,07,11,11,10,9.60
2010,07,11,11,11,9.60
2010,07,11,11,12,8.10
2010,07,11,11,13,4.80
2010,07,11,11,14,8.10
2010,07,11,11,15,12.90
2010,07,11,11,16,11.30
2010,07,11,11,17,12.90
2010,07,11,11,18,11.30
2010,07,11,11,19,12.90
2010,07,11,11,20,11.30
2010,07,11,11,21,12.90
2010,07,11,11,22,16.10
2010,07,11,11,23,14.50
2010,07,11,11,24,11.30
2010,07,11,11,25,20.90
2010,07,11,11,26,19.30
2010,07,11,11,27,16.10
2010,07,11,11,28,8.10
2010,07,11,11,29,17.70
2010,07,11,11,30,19.30
2010,07,11,11,31,11.30
2010,07,11,11,32,11.30
2010,07,11,11,33,12.90
2010,07,11,11,34,11.30
2010,07,11,11,35,19.30
2010,07,11,11,36,11.30
2010,07,11,11,37,17.70
2010,07,11,11,38,17.70
2010,07,11,11,39,19.30
2010,07,11,11,40,16.10
2010,07,11,11,41,12.90
2010,07,11,11,42,9.60
2010,07,11,11,43,6.40
2010,07,11,11,44,12.90
2010,07,11,11,45,9.60
2010,07,11,11,46,11.30
2010,07,11,11,47,12.90
2010,07,11,11,48,12.90
2010,07,11,11,49,9.60
2010,07,11,11,50,11.30
2010,07,11,11,51,22.50
2010,07,11,11,52,16.10
2010,07,11,11,53,14.50
2010,07,11,11,54,16.10
2010,07,11,11,55,16.10
2010,07,11,11,56,19.30
2010,07,11,11,57,19.30
2010,07,11,11,58,20.90
2010,07,11,11,59,14.50
2010,07,11,12,00,20.90
2010,07,11,12,01,17.70
2010,07,11,12,02,12.90
2010,07,11,12,03,12.90
2010,07,11,12,04,12.90
2010,07,11,12,05,11.30
2010,07,11,12,06,17.70
2010,07,11,12,07,16.10
2010,07,11,12,08,9.60
2010,07,11,12,09,16.10
2010,07,11,12,10,8.10
2010,07,11,12,11,14.50
2010,07,11,12,12,9.60
2010,07,11,12,13,11.30
2010,07,11,12,14,9.60
2010,07,11,12,15,14.50
2010,07,11,12,16,9.60
2010,07,11,12,17,16.10
2010,07,11,12,18,19.30
2010,07,11,12,19,20.90
2010,07,11,12,20,16.10
2010,07,11,12,21,11.30
2010,07,11,12,22,9.60
2010,07,11,12,23,17.70
2010,07,11,12,24,11.30
2010,07,11,12,25,22.50
2010,07,11,12,26,11.30
2010,07,11,12,27,16.10
2010,07,11,12,28,17.70
2010,07,11,12,29,12.90
2010,07,11,12,30,17.70
2010,07,11,12,31,12.90
2010,07,11,12,32,16.10
2010,07,11,12,33,19.30
2010,07,11,12,34,9.60
2010,07,11,12,35,9.60
2010,07,11,12,36,9.60
2010,07,11,12,37,14.50
2010,07,11,12,38,6.40
2010,07,11,12,39,14.50
2010,07,11,12,40,11.30
2010,07,11,12,41,11.30
2010,07,11,12,42,14.50
2010,07,11,12,43,14.50
2010,07,11,12,44,11.30
2010,07,11,12,45,16.10
2010,07,11,12,46,12.90
2010,07,11,12,47,9.60
2010,07,11,12,48,19.30
2010,07,11,12,49,19.30
2010,07,11,12,50,19.30
2010,07,11,12,51,9.60
2010,07,11,12,52,12.90
2010,07,11,12,53,12.90
2010,07,11,12,54,14.50
2010,07,11,12,55,20.90
2010,07,11,12,56,12.90
2010,07,11,12,57,19.30
2010,07,11,12,58,19.30
2010,07,11,12,59,19.30
2010,07,11,13,00,17.70
2010,07,11,13,01,17.70
2010,07,11,13,02,12.90
2010,07,11,13,03,14.50
2010,07,11,13,04,20.90
2010,07,11,13,05,12.90
2010,07,11,13,06,19.30
2010,07,11,13,07,6.40
2010,07,11,13,08,12.90
2010,07,11,13,09,11.30
2010,07,11,13,10,19.30
2010,07,11,13,11,12.90
2010,07,11,13,12,9.60
2010,07,11,13,13,6.40
2010,07,11,13,14,8.10
2010,07,11,13,15,8.10
2010,07,11,13,16,3.20
2010,07,11,13,17,16.10
2010,07,11,13,18,12.90
2010,07,11,13,19,8.10
2010,07,11,13,20,9.60
2010,07,11,13,21,19.30
2010,07,11,13,22,17.70
2010,07,11,13,23,14.50
2010,07,11,13,24,11.30
2010,07,11,13,25,11.30
2010,07,11,13,26,17.70
2010,07,11,13,27,19.30
2010,07,11,13,28,14.50
2010,07,11,13,29,16.10
2010,07,11,13,30,6.40
2010,07,11,13,31,17.70
2010,07,11,13,32,12.90
2010,07,11,13,33,9.60
2010,07,11,13,34,9.60
2010,07,11,13,35,9.60
2010,07,11,13,36,9.60
2010,07,11,13,37,17.70
2010,07,11,13,38,8.10
2010,07,11,13,39,14.50
2010,07,11,13,40,6.40
2010,07,11,13,41,12.90
2010,07,11,13,42,20.90
2010,07,11,13,43,19.30
2010,07,11,13,44,22.50
2010,07,11,13,45,19.30
2010,07,11,13,46,14.50
2010,07,11,13,47,19.30
2010,07,11,13,48,20.90
2010,07,11,13,49,14.50
2010,07,11,13,50,22.50
2010,07,11,13,51,17.70
2010,07,11,13,52,17.70
2010,07,11,13,53,19.30
2010,07,11,13,54,19.30
2010,07,11,13,55,12.90
2010,07,11,13,56,16.10
2010,07,11,13,57,12.90
2010,07,11,13,58,22.50
2010,07,11,13,59,16.10
2010,07,11,14,00,17.70
2010,07,11,14,01,19.30
2010,07,11,14,02,17.70
2010,07,11,14,03,16.10
2010,07,11,14,04,25.70
2010,07,11,14,05,17.70
2010,07,11,14,06,20.90
2010,07,11,14,07,17.70
2010,07,11,14,08,16.10
2010,07,11,14,09,16.10
2010,07,11,14,10,17.70
2010,07,11,14,11,17.70
2010,07,11,14,12,16.10
2010,07,11,14,13,19.30
2010,07,11,14,14,17.70
2010,07,11,14,15,17.70
2010,07,11,14,16,11.30
2010,07,11,14,17,12.90
2010,07,11,14,18,20.90
2010,07,11,14,19,17.70
2010,07,11,14,20,17.70
2010,07,11,14,21,12.90
2010,07,11,14,22,8.10
2010,07,11,14,23,12.90
2010,07,11,14,24,24.20
2010,07,11,14,25,8.10
2010,07,11,14,26,11.30
2010,07,11,14,27,11.30
2010,07,11,14,28,14.50
2010,07,11,14,29,6.40
2010,07,11,14,30,12.90
2010,07,11,14,31,11.30
2010,07,11,14,32,8.10
2010,07,11,14,33,12.90
2010,07,11,14,34,8.10
2010,07,11,14,35,8.10
2010,07,11,14,36,11.30
2010,07,11,14,37,12.90
2010,07,11,14,38,12.90
2010,07,11,14,39,16.10
2010,07,11,14,40,8.10
2010,07,11,14,41,14.50
2010,07,11,14,42,6.40
2010,07,11,14,43,9.60
2010,07,11,14,44,8.10
2010,07,11,14,45,11.30
2010,07,11,14,46,8.10
2010,07,11,14,47,14.50
2010,07,11,14,48,19.30
2010,07,11,14,49,9.60
2010,07,11,14,50,14.50
2010,07,11,14,51,20.90
2010,07,11,14,52,12.90
2010,07,11,14,53,19.30
2010,07,11,14,54,20.90
2010,07,11,14,55,12.90
2010,07,11,14,56,17.70
2010,07,11,14,57,14.50
2010,07,11,14,58,14.50
2010,07,11,14,59,17.70
2010,07,11,15,00,11.30
2010,07,11,15,01,11.30
2010,07,11,15,02,16.10
2010,07,11,15,03,22.50
2010,07,11,15,04,11.30
2010,07,11,15,05,12.90
2010,07,11,15,06,8.10
2010,07,11,15,07,19.30
2010,07,11,15,08,19.30
2010,07,11,15,09,11.30
2010,07,11,15,10,14.50
2010,07,11,15,11,19.30
2010,07,11,15,12,12.90
2010,07,11,15,13,9.60
2010,07,11,15,14,12.90
2010,07,11,15,15,8.10
2010,07,11,15,16,8.10
2010,07,11,15,17,9.60
2010,07,11,15,18,9.60
2010,07,11,15,19,11.30
2010,07,11,15,20,4.80
2010,07,11,15,21,11.30
2010,07,11,15,22,12.90
2010,07,11,15,23,14.50
2010,07,11,15,24,19.30
2010,07,11,15,25,17.70
2010,07,11,15,26,27.40
2010,07,11,15,27,16.10
2010,07,11,15,28,24.20
2010,07,11,15,29,14.50
2010,07,11,15,30,30.60
2010,07,11,15,31,11.30
2010,07,11,15,32,8.10
2010,07,11,15,33,12.90
2010,07,11,15,34,16.10
2010,07,11,15,35,8.10
2010,07,11,15,36,11.30
2010,07,11,15,37,8.10
2010,07,11,15,38,12.90
2010,07,11,15,39,12.90
2010,07,11,15,40,16.10
2010,07,11,15,41,22.50
2010,07,11,15,42,29.00
2010,07,11,15,43,12.90
2010,07,11,15,44,20.90
2010,07,11,15,45,17.70
2010,07,11,15,46,19.30
2010,07,11,15,47,19.30
2010,07,11,15,48,25.70
2010,07,11,15,49,19.30
2010,07,11,15,50,22.50
2010,07,11,15,51,16.10
2010,07,11,15,52,24.20
2010,07,11,15,53,29.00
2010,07,11,15,54,33.80
2010,07,11,15,55,30.60
2010,07,11,15,56,35.40
2010,07,11,15,57,30.60
2010,07,11,15,58,19.30
2010,07,11,15,59,22.50
2010,07,11,16,00,22.50
2010,07,11,16,01,25.70
2010,07,11,16,02,17.70
2010,07,11,16,03,20.90
2010,07,11,16,04,29.00
2010,07,11,16,05,29.00
2010,07,11,16,06,19.30
2010,07,11,16,07,22.50
2010,07,11,16,08,30.60
2010,07,11,16,09,17.70
2010,07,11,16,10,27.40
2010,07,11,16,11,43.50
2010,07,11,16,12,40.20
2010,07,11,16,13,35.40
2010,07,11,16,14,20.90
2010,07,11,16,15,24.20
2010,07,11,16,16,24.20
2010,07,11,16,17,30.60
2010,07,11,16,18,27.40
2010,07,11,16,19,32.20
2010,07,11,16,20,22.50
2010,07,11,16,21,33.80
2010,07,11,16,22,32.20
2010,07,11,16,23,38.60
2010,07,11,16,24,37.00
2010,07,11,16,25,35.40
2010,07,11,16,26,32.20
2010,07,11,16,27,22.50
2010,07,11,16,28,24.20
2010,07,11,16,29,30.60
2010,07,11,16,30,38.60
2010,07,11,16,31,35.40
2010,07,11,16,32,30.60
2010,07,11,16,33,32.20
2010,07,11,16,34,27.40
2010,07,11,16,35,32.20
2010,07,11,16,36,35.40
2010,07,11,16,37,32.20
2010,07,11,16,38,25.70
2010,07,11,16,39,27.40
2010,07,11,16,40,29.00
2010,07,11,16,41,32.20
2010,07,11,16,42,29.00
2010,07,11,16,43,24.20
2010,07,11,16,44,27.40
2010,07,11,16,45,24.20
2010,07,11,16,46,20.90
2010,07,11,16,47,30.60
2010,07,11,16,48,30.60
2010,07,11,16,49,12.90
2010,07,11,16,50,29.00
2010,07,11,16,51,20.90
2010,07,11,16,52,19.30
2010,07,11,16,53,29.00
2010,07,11,16,54,29.00
2010,07,11,16,55,20.90
2010,07,11,16,56,24.20
2010,07,11,16,57,19.30
2010,07,11,16,58,20.90
2010,07,11,16,59,20.90
2010,07,11,17,00,22.50
2010,07,11,17,01,32.20
2010,07,11,17,02,24.20
2010,07,11,17,03,24.20
2010,07,11,17,04,35.40
2010,07,11,17,05,32.20
2010,07,11,17,06,24.20
2010,07,11,17,07,20.90
2010,07,11,17,08,24.20
2010,07,11,17,09,24.20
2010,07,11,17,10,30.60
2010,07,11,17,11,33.80
2010,07,11,17,12,30.60
2010,07,11,17,13,30.60
2010,07,11,17,14,25.70
2010,07,11,17,15,27.40
2010,07,11,17,16,29.00
2010,07,11,17,17,30.60
2010,07,11,17,18,24.20
2010,07,11,17,19,20.90
2010,07,11,17,20,25.70
2010,07,11,17,21,24.20
2010,07,11,17,22,29.00
2010,07,11,17,23,17.70
2010,07,11,17,24,25.70
2010,07,11,17,25,25.70
2010,07,11,17,26,25.70
2010,07,11,17,27,35.40
2010,07,11,17,28,35.40
2010,07,11,17,29,20.90
2010,07,11,17,30,32.20
2010,07,11,17,31,27.40
2010,07,11,17,32,27.40
2010,07,11,17,33,29.00
2010,07,11,17,34,25.70
2010,07,11,17,35,32.20
2010,07,11,17,36,32.20
2010,07,11,17,37,22.50
2010,07,11,17,38,32.20
2010,07,11,17,39,33.80
2010,07,11,17,40,16.10
2010,07,11,17,41,29.00
2010,07,11,17,42,30.60
2010,07,11,17,43,25.70
2010,07,11,17,44,37.00
2010,07,11,17,45,32.20
2010,07,11,17,46,22.50
2010,07,11,17,47,32.20
2010,07,11,17,48,27.40
2010,07,11,17,49,38.60
2010,07,11,17,50,32.20
2010,07,11,17,51,24.20
2010,07,11,17,52,40.20
2010,07,11,17,53,29.00
2010,07,11,17,54,24.20
2010,07,11,17,55,17.70
2010,07,11,17,56,29.00
2010,07,11,17,57,30.60
2010,07,11,17,58,20.90
2010,07,11,17,59,30.60
2010,07,11,18,00,22.50
2010,07,11,18,01,30.60
2010,07,11,18,02,22.50
2010,07,11,18,03,29.00
2010,07,11,18,04,25.70
2010,07,11,18,05,19.30
2010,07,11,18,06,16.10
2010,07,11,18,07,17.70
2010,07,11,18,08,17.70
2010,07,11,18,09,12.90
2010,07,11,18,10,29.00
2010,07,11,18,11,27.40
2010,07,11,18,12,30.60
2010,07,11,18,13,24.20
2010,07,11,18,14,33.80
2010,07,11,18,15,35.40
2010,07,11,18,16,32.20
2010,07,11,18,17,27.40
2010,07,11,18,18,29.00
2010,07,11,18,19,20.90
2010,07,11,18,20,30.60
2010,07,11,18,21,22.50
2010,07,11,18,22,20.90
2010,07,11,18,23,32.20
2010,07,11,18,24,20.90
2010,07,11,18,25,19.30
2010,07,11,18,26,32.20
2010,07,11,18,27,32.20
2010,07,11,18,28,40.20
2010,07,11,18,29,25.70
2010,07,11,18,30,24.20
2010,07,11,18,31,29.00
2010,07,11,18,32,30.60
2010,07,11,18,33,24.20
2010,07,11,18,34,30.60
2010,07,11,18,35,33.80
2010,07,11,18,36,37.00
2010,07,11,18,37,46.70
2010,07,11,18,38,37.00
2010,07,11,18,39,32.20
2010,07,11,18,40,32.20
2010,07,11,18,41,30.60
2010,07,11,18,42,43.50
2010,07,11,18,43,30.60
2010,07,11,18,44,27.40
2010,07,11,18,45,33.80
2010,07,11,18,46,33.80
2010,07,11,18,47,37.00
2010,07,11,18,48,33.80
2010,07,11,18,49,37.00
2010,07,11,18,50,33.80
2010,07,11,18,51,24.20
2010,07,11,18,52,29.00
2010,07,11,18,53,40.20
2010,07,11,18,54,27.40
2010,07,11,18,55,35.40
2010,07,11,18,56,33.80
2010,07,11,18,57,30.60
2010,07,11,18,58,29.00
2010,07,11,18,59,37.00
2010,07,11,19,00,25.70
2010,07,11,19,01,29.00
2010,07,11,19,02,29.00
2010,07,11,19,03,27.40
2010,07,11,19,04,30.60
2010,07,11,19,05,24.20